period_start,C,m1,H,J0,J1,J2,J3,J4,J5,JA,JB,JC,JD,JJ,JK,JN,#
2015-09-17 00:01:59,0.00,0.06,0.00,20.78,26.77,30.01,14.86,49.56,1023.47,2041.03,3476.02,3225.03,3508.10,600.15,604.61,20.99,0000 0000 0000 0000 000000
2015-09-17 00:07:00,-0.00,0.06,0.00,20.81,26.77,30.00,14.91,49.50,1023.48,2041.04,3476.02,3225.02,3508.06,600.17,604.62,21.04,0000 0000 0000 0000 000000
2015-09-17 00:12:01,-0.00,0.06,0.00,20.78,26.77,30.01,14.78,49.56,1023.45,2041.07,3476.02,3225.04,3508.24,599.86,604.48,21.09,0000 0000 0000 0000 000000
2015-09-17 00:17:02,0.00,0.06,0.00,20.81,26.77,30.00,14.82,49.52,1023.45,2041.06,3476.01,3225.03,3508.12,600.02,604.50,21.14,0000 0000 0000 0000 000000
2015-09-17 00:22:03,-0.00,0.06,0.00,20.80,26.77,29.95,14.84,49.53,1023.45,2041.03,3476.00,3225.02,3508.04,599.92,604.39,21.19,0000 0000 0000 0000 000000
2015-09-17 00:27:04,0.00,0.06,0.00,20.80,26.77,29.99,14.88,49.56,1023.45,2041.07,3476.00,3225.01,3508.07,599.98,604.51,21.24,0000 0000 0000 0000 000000
2015-09-17 00:32:05,0.00,0.06,0.00,20.84,26.77,30.02,14.82,49.54,1023.45,2041.10,3476.00,3225.01,3508.04,600.07,604.67,21.29,0000 0000 0000 0000 000000
2015-09-17 00:37:06,-0.00,0.06,0.00,20.83,26.77,29.98,14.83,49.53,1023.44,2041.11,3476.00,3225.00,3508.03,599.86,604.22,21.34,0000 0000 0000 0000 000000
2015-09-17 00:42:08,0.00,0.06,0.00,20.83,26.77,29.98,14.77,49.55,1023.43,2041.06,3475.99,3225.00,3508.01,599.65,603.95,21.39,0000 0000 0000 0000 000000
2015-09-17 00:47:09,0.01,0.06,0.00,20.86,26.77,29.98,14.87,49.61,1023.36,2041.12,3475.99,3225.00,3508.02,599.91,604.09,21.44,0000 0000 0000 0000 000000
2015-09-17 00:52:10,-0.00,0.06,0.00,20.83,26.79,29.99,14.83,49.63,1023.22,2041.09,3475.95,3225.00,3508.00,599.88,604.25,21.49,0000 0000 0000 0000 000000
2015-09-17 00:57:11,0.01,0.06,0.00,20.85,26.80,30.02,14.80,49.44,1023.07,2041.09,3475.97,3225.00,3508.00,599.96,604.16,21.54,0000 0000 0000 0000 000000
2015-09-17 01:02:12,0.00,0.06,0.00,20.83,26.80,30.02,14.85,49.44,1022.99,2041.12,3475.98,3225.00,3508.00,600.11,604.32,21.59,0000 0000 0000 0000 000000
2015-09-17 01:07:14,0.00,0.06,0.00,20.85,26.80,29.99,14.85,49.58,1022.97,2041.13,3475.98,3225.00,3508.00,599.80,604.00,21.64,0000 0000 0000 0000 000000
2015-09-17 01:12:15,-0.01,0.06,0.00,20.87,26.81,30.00,14.85,49.52,1022.98,2041.07,3475.95,3224.99,3508.00,600.15,604.27,21.69,0000 0000 0000 0000 000000
2015-09-17 01:17:17,-0.00,0.06,0.00,20.86,26.82,30.04,14.82,49.65,1022.96,2041.05,3475.85,3224.98,3508.00,599.52,603.75,21.74,0000 0000 0000 0000 000000
2015-09-17 01:22:18,0.01,0.06,0.00,20.88,26.82,30.05,14.75,49.48,1022.96,2041.05,3475.57,3224.97,3507.99,599.72,603.82,21.79,0000 0000 0000 0000 000000
2015-09-17 01:27:19,-0.00,0.06,0.00,20.87,26.82,30.06,14.77,49.63,1022.95,2041.06,3475.38,3224.97,3507.99,599.32,603.59,21.84,0000 0000 0000 0000 000000
2015-09-17 01:32:20,0.01,0.06,0.00,20.90,26.84,30.08,14.82,49.48,1022.89,2041.04,3475.34,3224.92,3507.98,600.27,604.28,21.89,0000 0000 0000 0000 000000
2015-09-17 01:37:21,0.00,0.06,0.00,20.89,26.85,30.05,14.86,49.58,1022.79,2041.03,3475.04,3224.72,3507.96,599.98,603.92,21.94,0000 0000 0000 0000 000000
2015-09-17 01:42:23,0.00,0.06,0.00,20.90,26.85,30.08,14.90,49.58,1022.63,2041.03,3475.06,3224.68,3507.97,600.49,604.34,21.99,0000 0000 0000 0000 000000
2015-09-17 01:47:24,0.01,0.06,0.00,20.91,26.85,30.07,14.82,49.49,1022.60,2041.04,3475.01,3224.41,3507.88,599.70,603.57,22.04,0000 0000 0000 0000 000000
2015-09-17 01:52:25,0.01,0.07,0.00,20.90,26.87,30.12,14.85,49.57,1022.53,2041.03,3475.00,3224.12,3507.52,600.20,604.05,22.09,0000 0000 0000 0000 000000
2015-09-17 01:57:26,0.00,0.07,0.00,20.94,26.87,30.08,14.83,49.48,1022.50,2041.01,3475.00,3224.06,3507.19,600.04,603.65,22.14,0000 0000 0000 0000 000000
2015-09-17 02:02:28,-0.00,0.07,0.00,20.92,26.87,30.10,14.86,49.63,1022.50,2041.02,3474.99,3224.04,3507.19,599.95,603.71,22.19,0000 0000 0000 0000 000000
2015-09-17 02:07:29,0.00,0.07,0.00,20.94,26.87,30.14,14.91,49.53,1022.49,2041.02,3474.98,3224.03,3507.11,600.24,603.99,22.25,0000 0000 0000 0000 000000
2015-09-17 02:12:30,0.00,0.07,0.00,20.94,26.88,30.12,14.90,49.56,1022.48,2041.00,3474.94,3224.00,3507.02,600.08,603.65,22.30,0000 0000 0000 0000 000000
2015-09-17 02:17:31,0.00,0.07,0.00,20.95,26.90,30.10,14.79,49.48,1022.49,2041.01,3474.76,3224.00,3507.00,599.65,603.31,22.35,0000 0000 0000 0000 000000
2015-09-17 02:22:32,0.00,0.07,0.00,20.99,26.90,30.13,14.82,49.42,1022.48,2041.00,3474.31,3224.00,3507.00,599.98,603.49,22.40,0000 0000 0000 0000 000000
2015-09-17 02:27:33,0.00,0.07,0.00,20.97,26.90,30.11,14.91,49.57,1022.48,2041.00,3474.30,3224.00,3507.00,600.23,603.89,22.45,0000 0000 0000 0000 000000
2015-09-17 02:32:35,0.00,0.07,0.00,21.00,26.90,30.15,14.83,49.37,1022.48,2041.01,3474.19,3224.00,3506.99,600.17,603.68,22.50,0000 0000 0000 0000 000000
2015-09-17 02:37:36,0.00,0.07,0.00,21.01,26.90,30.13,14.79,49.56,1022.48,2041.00,3474.05,3223.99,3506.99,599.83,603.29,22.55,0000 0000 0000 0000 000000
2015-09-17 02:42:37,0.00,0.07,0.00,21.00,26.91,30.16,14.87,49.43,1022.48,2041.00,3474.02,3223.98,3506.97,600.09,603.59,22.60,0000 0000 0000 0000 000000
2015-09-17 02:47:38,0.00,0.07,0.00,21.02,26.92,30.17,14.79,49.36,1022.48,2040.99,3474.04,3223.99,3506.96,599.45,603.02,22.65,0000 0000 0000 0000 000000
2015-09-17 02:52:39,0.00,0.07,0.00,21.02,26.92,30.16,14.79,49.42,1022.48,2040.99,3474.06,3223.99,3506.98,600.01,603.53,22.70,0000 0000 0000 0000 000000
2015-09-17 02:57:41,0.00,0.07,0.00,21.02,26.92,30.18,14.81,49.58,1022.48,2040.99,3474.01,3223.98,3506.93,600.07,603.56,22.75,0000 0000 0000 0000 000000
2015-09-17 03:02:42,0.00,0.07,0.00,21.02,26.92,30.18,14.84,49.48,1022.47,2040.99,3474.00,3223.98,3506.90,599.90,603.36,22.80,0000 0000 0000 0000 000000
2015-09-17 03:07:43,0.00,0.07,0.00,21.04,26.92,30.23,14.83,49.55,1022.43,2040.99,3474.00,3223.95,3506.85,599.36,603.05,22.85,0000 0000 0000 0000 000000
2015-09-17 03:12:44,0.00,0.07,0.00,21.05,26.92,30.19,14.80,49.42,1022.39,2040.99,3474.00,3223.95,3506.79,600.08,603.49,22.90,0000 0000 0000 0000 000000
2015-09-17 03:17:46,0.01,0.07,0.00,21.05,26.94,30.23,14.84,49.48,1022.21,2040.99,3474.00,3223.82,3506.27,599.84,603.12,22.95,0000 0000 0000 0000 000000
2015-09-17 03:22:47,0.01,0.07,0.00,21.09,26.95,30.22,14.74,49.38,1022.04,2040.99,3473.99,3223.59,3506.09,599.66,602.73,23.00,0000 0000 0000 0000 000000
2015-09-17 03:27:48,-0.01,0.07,0.00,21.07,26.95,30.23,14.83,49.59,1022.00,2040.99,3473.99,3223.74,3506.21,599.56,602.57,23.05,0000 0000 0000 0000 000000
2015-09-17 03:32:50,-0.00,0.07,0.00,21.10,26.95,30.21,14.80,49.28,1022.00,2040.99,3473.99,3223.88,3506.23,600.11,603.19,23.10,0000 0000 0000 0000 000000
2015-09-17 03:37:51,-0.00,0.07,0.00,21.09,26.95,30.22,14.81,49.44,1021.99,2040.99,3473.99,3223.90,3506.31,600.36,603.39,23.15,0000 0000 0000 0000 000000
2015-09-17 03:42:52,0.00,0.07,0.00,21.11,26.96,30.22,14.84,49.45,1021.99,2040.99,3474.00,3223.86,3506.17,599.96,603.01,23.20,0000 0000 0000 0000 000000
2015-09-17 03:47:54,0.00,0.07,0.00,21.26,26.97,30.28,14.83,49.50,1021.99,2040.98,3474.00,3223.69,3506.07,600.48,603.26,23.25,0000 0000 0000 0000 000000
2015-09-17 03:52:55,0.01,0.07,0.00,21.60,26.99,30.15,14.78,49.48,1021.99,2040.98,3473.98,3223.26,3506.02,600.57,602.57,23.30,0000 0000 0000 0000 000000
2015-09-17 03:57:56,0.00,0.07,0.00,21.50,27.00,30.05,14.80,49.47,1021.99,2040.97,3473.95,3223.06,3506.00,600.03,602.33,23.35,0000 0000 0000 0000 000000
2015-09-17 04:02:58,0.01,0.07,0.00,21.39,27.02,30.09,14.81,49.47,1021.97,2040.96,3473.30,3223.01,3506.00,600.08,602.45,23.40,0000 0000 0000 0000 000000
2015-09-17 04:07:59,-0.02,0.07,0.00,21.36,27.03,30.18,14.83,49.38,1021.94,2040.86,3473.03,3223.00,3505.96,599.87,602.38,23.45,0000 0000 0000 0000 000000
2015-09-17 04:13:00,-0.00,0.07,0.00,21.32,27.05,30.27,14.76,49.52,1021.90,2040.65,3473.01,3223.00,3505.91,599.72,602.22,23.50,0000 0000 0000 0000 000000
2015-09-17 04:18:01,-0.03,0.07,0.00,21.29,27.05,30.40,14.82,49.49,1021.72,2040.33,3473.00,3222.98,3505.51,600.00,602.52,23.55,0000 0000 0000 0000 000000
2015-09-17 04:23:02,-0.00,0.07,0.00,21.28,27.07,30.42,14.76,49.41,1021.62,2040.23,3473.00,3222.97,3505.28,600.19,602.71,23.60,0000 0000 0000 0000 000000
2015-09-17 04:28:04,0.00,0.07,0.00,21.25,27.07,30.43,14.85,49.34,1021.58,2040.15,3473.00,3222.93,3505.07,600.20,602.59,23.65,0000 0000 0000 0000 000000
2015-09-17 04:33:05,-0.00,0.07,0.00,21.25,27.07,30.40,14.84,49.29,1021.53,2040.13,3472.98,3222.95,3505.06,599.91,602.48,23.70,0000 0000 0000 0000 000000
2015-09-17 04:38:07,0.01,0.07,0.00,21.23,27.09,30.38,14.84,49.28,1021.51,2040.17,3472.95,3222.93,3505.02,599.57,602.07,23.75,0000 0000 0000 0000 000000
2015-09-17 04:43:08,0.00,0.07,0.00,21.22,27.10,30.38,14.67,49.20,1021.51,2040.10,3472.76,3222.81,3505.01,599.69,602.29,23.80,0000 0000 0000 0000 000000
2015-09-17 04:48:09,0.02,0.07,0.00,21.21,27.10,30.37,14.82,49.44,1021.50,2040.17,3472.32,3222.69,3505.00,600.19,602.72,23.85,0000 0000 0000 0000 000000
2015-09-17 04:53:11,-0.00,0.07,0.00,21.27,27.10,30.40,14.84,49.51,1021.50,2040.07,3472.06,3222.30,3505.00,599.91,602.33,23.90,0000 0000 0000 0000 000000
2015-09-17 04:58:12,0.00,0.07,0.00,21.67,27.11,30.31,14.77,49.05,1021.49,2040.05,3472.05,3222.17,3504.99,600.00,601.61,23.95,0000 0000 0000 0000 000000
2015-09-17 05:03:13,0.00,0.07,0.00,21.67,27.13,30.18,14.81,49.15,1021.44,2040.07,3472.05,3222.17,3504.97,600.17,601.81,24.00,0000 0000 0000 0000 000000
2015-09-17 05:08:14,0.00,0.07,0.00,21.53,27.15,30.22,14.75,49.11,1021.31,2040.04,3472.00,3222.02,3504.78,599.76,601.37,24.05,0000 0000 0000 0000 000000
2015-09-17 05:13:15,0.00,0.07,0.00,21.44,27.15,30.31,14.78,49.35,1021.30,2040.00,3471.98,3222.00,3504.43,600.25,602.19,24.10,0000 0000 0000 0000 000000
2015-09-17 05:18:17,0.01,0.07,0.00,21.39,27.16,30.45,14.73,49.29,1021.28,2040.00,3471.69,3221.99,3504.04,599.56,601.56,24.15,0000 0000 0000 0000 000000
2015-09-17 05:23:18,-0.00,0.07,0.00,21.38,27.17,30.50,14.74,49.21,1021.25,2040.00,3471.36,3221.99,3504.01,599.74,601.75,24.20,0000 0000 0000 0000 000000
2015-09-17 05:28:19,0.00,0.07,0.00,21.33,27.17,30.47,14.81,49.25,1021.16,2040.00,3471.22,3221.99,3504.00,600.11,602.23,24.25,0000 0000 0000 0000 000000
2015-09-17 05:33:20,0.00,0.07,0.00,21.32,27.17,30.45,14.82,49.33,1021.05,2040.00,3471.06,3221.99,3504.00,599.99,602.09,24.30,0000 0000 0000 0000 000000
2015-09-17 05:38:21,0.00,0.07,0.00,21.28,27.17,30.45,14.88,49.33,1021.03,2040.00,3471.00,3221.96,3504.00,600.68,602.74,24.35,0000 0000 0000 0000 000000
2015-09-17 05:43:22,0.00,0.07,0.00,21.27,27.17,30.43,14.80,49.35,1021.01,2040.00,3470.99,3221.95,3504.00,599.93,602.10,24.40,0000 0000 0000 0000 000000
2015-09-17 05:48:23,0.00,0.07,0.00,21.54,27.18,30.48,14.83,49.23,1021.01,2040.00,3470.99,3221.88,3503.97,600.56,602.07,24.45,0000 0000 0000 0000 000000
2015-09-17 05:53:24,0.00,0.07,0.00,21.81,27.20,30.35,14.78,49.07,1021.01,2040.00,3470.98,3221.72,3503.94,600.19,601.27,24.50,0000 0000 0000 0000 000000
2015-09-17 05:58:26,0.02,0.07,0.00,21.65,27.21,30.26,14.79,49.08,1020.98,2040.00,3470.94,3221.19,3503.31,599.76,601.08,24.55,0000 0000 0000 0000 000000
2015-09-17 06:03:27,0.00,0.07,0.00,21.52,27.22,30.31,14.79,49.27,1020.95,2039.99,3470.78,3221.10,3503.16,600.02,601.66,24.60,0000 0000 0000 0000 000000
2015-09-17 06:08:28,0.01,0.07,0.00,21.46,27.22,30.43,14.67,49.28,1020.68,2039.99,3470.38,3221.08,3503.08,599.42,600.95,24.65,0000 0000 0000 0000 000000
2015-09-17 06:13:30,0.00,0.07,0.00,21.40,27.22,30.54,14.78,49.29,1020.56,2039.98,3470.05,3221.04,3503.02,600.27,601.93,24.70,0000 0000 0000 0000 000000
2015-09-17 06:18:31,0.00,0.07,0.00,21.39,27.22,30.55,14.72,49.37,1020.54,2039.97,3470.01,3221.02,3503.00,599.60,601.29,24.75,0000 0000 0000 0000 000000
2015-09-17 06:23:33,0.00,0.07,0.00,21.34,27.22,30.51,14.71,49.24,1020.53,2039.98,3470.01,3221.02,3503.00,599.11,600.97,24.80,0000 0000 0000 0000 000000
2015-09-17 06:28:34,0.00,0.07,0.00,21.32,27.22,30.47,14.76,49.40,1020.52,2039.99,3470.00,3221.04,3503.01,600.03,601.64,24.85,0000 0000 0000 0000 000000
2015-09-17 06:33:35,-0.00,0.07,0.00,21.36,27.22,30.45,14.80,49.33,1020.52,2039.98,3470.01,3221.04,3503.00,600.12,601.65,24.90,0000 0000 0000 0000 000000
2015-09-17 06:38:36,0.00,0.07,0.00,21.70,27.24,30.50,14.82,49.27,1020.52,2039.99,3470.00,3221.03,3503.00,600.05,601.03,24.95,0000 0000 0000 0000 000000
2015-09-17 06:43:38,-0.00,0.07,0.00,21.85,27.25,30.37,14.68,49.27,1020.52,2039.97,3470.00,3221.02,3502.99,599.88,600.47,25.00,0000 0000 0000 0000 000000
2015-09-17 06:48:39,-0.00,0.07,0.00,21.64,27.25,30.32,14.65,49.40,1020.52,2039.89,3470.01,3221.00,3502.98,600.00,601.01,25.05,0000 0000 0000 0000 000000
2015-09-17 06:53:41,-0.01,0.07,0.00,21.54,27.27,30.39,14.72,49.23,1020.43,2039.73,3469.99,3221.00,3502.91,599.86,601.06,25.10,0000 0000 0000 0000 000000
2015-09-17 06:58:42,0.00,0.07,0.00,21.46,27.27,30.51,14.75,49.27,1020.19,2039.65,3469.94,3220.99,3502.75,600.01,601.27,25.16,0000 0000 0000 0000 000000
2015-09-17 07:03:43,0.00,0.07,0.00,21.42,27.27,30.59,14.83,49.39,1020.09,2039.65,3469.84,3220.99,3502.53,600.13,601.32,25.21,0000 0000 0000 0000 000000
2015-09-17 07:08:45,0.01,0.07,0.00,21.36,27.27,30.58,14.80,49.23,1020.06,2039.71,3469.45,3220.99,3502.41,599.96,601.50,25.26,0000 0000 0000 0000 000000
2015-09-17 07:13:46,-0.00,0.07,0.00,21.34,27.27,30.55,14.76,49.51,1020.06,2039.69,3469.36,3220.99,3502.36,599.80,601.31,25.31,0000 0000 0000 0000 000000
2015-09-17 07:18:47,-0.00,0.07,0.00,21.31,27.27,30.50,14.84,49.29,1020.10,2039.56,3469.35,3220.98,3502.14,600.58,602.00,25.36,0000 0000 0000 0000 000000
2015-09-17 07:23:48,0.01,0.07,0.00,21.29,27.27,30.51,14.77,49.21,1020.05,2039.64,3469.20,3220.99,3502.13,600.07,601.43,25.41,0000 0000 0000 0000 000000
2015-09-17 07:28:50,-0.00,0.07,0.00,21.39,27.27,30.56,14.74,49.15,1020.04,2039.74,3469.13,3220.98,3502.11,599.84,601.18,25.46,0000 0000 0000 0000 000000
2015-09-17 07:33:51,0.00,0.07,0.00,21.80,27.27,30.42,14.73,49.13,1020.04,2039.79,3469.04,3220.98,3502.08,599.81,600.33,25.51,0000 0000 0000 0000 000000
2015-09-17 07:38:52,0.00,0.07,0.00,21.81,27.29,30.32,14.63,49.02,1020.03,2039.77,3469.01,3220.97,3502.02,599.24,599.76,25.56,0000 0000 0000 0000 000000
2015-09-17 07:43:53,0.00,0.07,0.00,21.65,27.30,30.31,14.72,49.00,1020.02,2039.87,3469.01,3220.98,3502.03,600.03,600.83,25.61,0000 0000 0000 0000 000000
2015-09-17 07:48:54,-0.02,0.07,0.00,21.54,27.30,30.37,14.74,49.19,1020.03,2039.73,3469.00,3220.90,3502.01,600.17,601.18,25.66,0000 0000 0000 0000 000000
2015-09-17 07:53:55,-0.01,0.07,0.00,21.49,27.30,30.51,14.70,49.17,1020.01,2039.51,3469.00,3220.87,3502.00,599.20,600.37,25.71,0000 0000 0000 0000 000000
2015-09-17 07:58:57,-0.00,0.07,0.00,21.45,27.30,30.59,14.77,49.27,1019.97,2039.47,3469.00,3220.89,3502.00,599.93,601.09,25.76,0000 0000 0000 0000 000000
2015-09-17 08:03:58,-0.00,0.07,0.00,21.40,27.30,30.63,14.71,49.19,1019.93,2039.38,3469.00,3220.86,3502.00,599.84,601.09,25.81,0000 0000 0000 0000 000000
2015-09-17 08:09:00,-0.01,0.07,0.00,21.38,27.30,30.61,14.87,49.32,1019.97,2039.39,3469.00,3220.94,3502.00,600.09,601.46,25.86,0000 0000 0000 0000 000000
2015-09-17 08:14:01,-0.01,0.07,0.00,21.49,27.30,30.59,14.79,49.18,1019.96,2039.32,3469.00,3220.83,3502.00,600.25,601.32,25.91,0000 0000 0000 0000 000000
2015-09-17 08:19:03,-0.01,0.07,0.00,21.84,27.32,30.42,14.74,48.96,1019.95,2039.14,3468.99,3220.68,3502.00,600.57,600.91,25.96,0000 0000 0000 0000 000000
2015-09-17 08:24:04,0.02,0.07,0.00,21.74,27.32,30.33,14.72,48.92,1019.90,2039.16,3468.97,3220.22,3501.98,599.76,600.25,26.01,0000 0000 0000 0000 000000
2015-09-17 08:29:05,-0.00,0.07,0.00,21.61,27.32,30.35,14.69,49.01,1019.79,2039.18,3468.94,3220.26,3501.98,599.62,600.34,26.06,0000 0000 0000 0000 000000
2015-09-17 08:34:06,-0.00,0.07,0.00,21.56,27.33,30.46,14.76,49.02,1019.66,2039.08,3468.82,3220.07,3501.97,600.01,600.79,26.11,0000 0000 0000 0000 000000
2015-09-17 08:39:08,0.00,0.07,0.00,21.47,27.33,30.60,14.75,49.07,1019.60,2039.05,3468.74,3220.09,3501.96,599.88,600.82,26.16,0000 0000 0000 0000 000000
2015-09-17 08:44:09,0.01,0.07,0.00,21.44,27.33,30.66,14.76,49.22,1019.58,2039.06,3468.41,3220.05,3501.87,600.53,601.49,26.21,0000 0000 0000 0000 000000
2015-09-17 08:49:10,-0.00,0.07,0.00,21.40,27.32,30.63,14.84,49.26,1019.56,2039.02,3468.41,3220.04,3501.63,600.66,601.59,26.26,0000 0000 0000 0000 000000
2015-09-17 08:54:12,0.01,0.07,0.00,21.34,27.32,30.56,14.79,49.29,1019.55,2039.03,3468.23,3220.02,3501.45,600.00,601.13,26.31,0000 0000 0000 0000 000000
2015-09-17 08:59:13,-0.00,0.07,0.00,21.34,27.32,30.57,14.77,49.25,1019.55,2039.04,3468.36,3220.05,3501.74,600.00,601.12,26.36,0000 0000 0000 0000 000000
2015-09-17 09:04:14,0.01,0.07,0.00,21.31,27.32,30.55,14.74,49.30,1019.55,2039.04,3468.27,3220.06,3501.70,600.07,601.21,26.41,0000 0000 0000 0000 000000
2015-09-17 09:09:15,-0.00,0.07,0.00,21.58,27.32,30.65,14.73,49.26,1019.55,2039.05,3468.40,3220.08,3501.71,599.93,600.52,26.46,0000 0000 0000 0000 000000
2015-09-17 09:14:17,-0.00,0.07,0.00,21.86,27.32,30.49,14.70,49.18,1019.55,2039.05,3468.60,3220.11,3501.71,599.64,599.71,26.51,0000 0000 0000 0000 000000
2015-09-17 09:19:18,0.01,0.07,0.00,21.67,27.32,30.43,14.74,49.08,1019.55,2039.03,3468.15,3220.03,3501.35,600.10,600.53,26.56,0000 0000 0000 0000 000000
2015-09-17 09:24:19,0.00,0.07,0.00,21.56,27.33,30.50,14.73,49.08,1019.55,2039.03,3468.04,3220.01,3501.13,600.19,600.88,26.61,0000 0000 0000 0000 000000
2015-09-17 09:29:20,0.00,0.07,0.00,21.50,27.34,30.62,14.84,49.15,1019.55,2039.02,3468.00,3220.01,3501.08,600.83,601.57,26.66,0000 0000 0000 0000 000000
2015-09-17 09:34:22,0.00,0.07,0.00,21.43,27.34,30.62,14.77,49.08,1019.55,2039.01,3468.00,3220.00,3501.02,599.98,601.01,26.71,0000 0000 0000 0000 000000
2015-09-17 09:39:23,0.00,0.07,0.00,21.40,27.34,30.54,14.83,49.29,1019.55,2039.04,3468.00,3220.01,3501.02,600.37,601.37,26.76,0000 0000 0000 0000 000000
2015-09-17 09:44:24,0.00,0.07,0.00,21.34,27.33,30.48,14.84,49.30,1019.54,2039.02,3468.00,3220.00,3501.02,600.29,601.37,26.81,0000 0000 0000 0000 000000
2015-09-17 09:49:26,-0.00,0.07,0.00,21.33,27.32,30.51,14.79,49.32,1019.50,2039.02,3468.00,3220.00,3501.02,600.21,601.33,26.86,0000 0000 0000 0000 000000
2015-09-17 09:54:27,0.00,0.07,0.00,21.35,27.32,30.53,14.87,49.33,1019.49,2039.05,3468.00,3220.01,3501.02,600.56,601.58,26.91,0000 0000 0000 0000 000000
2015-09-17 09:59:28,0.01,0.07,0.00,21.69,27.32,30.64,14.77,49.13,1019.45,2039.07,3468.00,3220.03,3501.02,599.92,600.33,26.96,0000 0000 0000 0000 000000
2015-09-17 10:04:29,-0.00,0.07,0.00,21.86,27.35,30.47,14.74,48.90,1019.44,2039.08,3468.00,3220.00,3501.01,599.70,599.73,27.01,0000 0000 0000 0000 000000
2015-09-17 10:09:30,-0.00,0.07,0.00,21.67,27.35,30.41,14.77,48.97,1019.36,2039.03,3467.98,3220.00,3501.00,600.57,600.93,27.06,0000 0000 0000 0000 000000
2015-09-17 10:14:32,0.00,0.07,0.00,21.54,27.35,30.52,14.81,49.27,1019.24,2039.04,3467.97,3220.00,3501.00,600.11,600.86,27.11,0000 0000 0000 0000 000000
2015-09-17 10:19:33,0.00,0.07,0.00,21.49,27.35,30.62,14.74,49.17,1019.11,2039.01,3467.68,3220.00,3501.00,599.68,600.19,27.16,0000 0000 0000 0000 000000
2015-09-17 10:24:34,0.00,0.07,0.00,21.42,27.35,30.57,14.79,49.33,1019.09,2039.01,3467.37,3220.00,3500.99,600.32,601.16,27.21,0000 0000 0000 0000 000000
2015-09-17 10:29:35,0.00,0.07,0.00,21.38,27.35,30.50,14.70,49.25,1019.09,2039.01,3467.14,3220.00,3500.98,599.93,600.73,27.26,0000 0000 0000 0000 000000
2015-09-17 10:34:37,0.00,0.07,0.00,21.35,27.34,30.49,14.73,49.21,1019.10,2039.01,3467.05,3219.99,3500.97,599.78,600.59,27.31,0000 0000 0000 0000 000000
2015-09-17 10:39:38,0.00,0.07,0.00,21.30,27.32,30.50,14.81,49.42,1019.08,2039.01,3467.01,3219.99,3500.98,599.62,600.56,27.36,0000 0000 0000 0000 000000
2015-09-17 10:44:39,0.02,0.07,0.00,21.33,27.32,30.52,14.74,49.08,1019.07,2039.02,3466.85,3219.78,3500.74,599.90,600.79,27.41,0000 0000 0000 0000 000000
2015-09-17 10:49:40,0.11,0.08,0.00,21.61,27.32,30.60,14.75,49.25,1019.06,2039.03,3464.90,3218.34,3499.20,599.90,600.18,27.46,0000 0000 0000 0000 000000
2015-09-17 10:54:42,0.11,0.08,0.00,21.80,27.33,30.48,14.69,49.05,1019.06,2039.02,3461.81,3216.44,3497.07,599.92,599.80,27.51,0000 0000 0000 0000 000000
2015-09-17 10:59:43,0.05,0.09,0.00,21.64,27.34,30.37,14.78,48.98,1019.06,2039.01,3460.17,3215.36,3496.04,600.43,600.63,27.56,0000 0000 0000 0000 000000
2015-09-17 11:04:44,0.01,0.09,0.00,21.53,27.35,30.47,14.81,49.20,1019.06,2039.01,3459.34,3215.00,3495.84,600.00,600.44,27.61,0000 0000 0000 0000 000000
2015-09-17 11:09:46,0.01,0.09,0.00,21.47,27.35,30.61,14.73,49.09,1019.06,2039.01,3459.03,3215.00,3495.54,599.88,600.36,27.66,0000 0000 0000 0000 000000
2015-09-17 11:14:47,0.01,0.09,0.00,21.40,27.35,30.60,14.80,49.26,1019.06,2039.00,3458.97,3214.92,3495.06,600.17,600.87,27.71,0000 0000 0000 0000 000000
2015-09-17 11:19:48,0.01,0.09,0.00,21.38,27.34,30.51,14.79,49.25,1019.03,2039.01,3458.78,3214.85,3495.01,600.33,601.07,27.76,0000 0000 0000 0000 000000
2015-09-17 11:24:50,0.01,0.09,0.00,21.33,27.33,30.52,14.75,49.25,1018.91,2039.01,3458.39,3214.83,3495.00,600.15,600.75,27.81,0000 0000 0000 0000 000000
2015-09-17 11:29:51,0.02,0.09,0.00,21.31,27.32,30.52,14.76,49.23,1018.63,2039.02,3458.02,3214.18,3494.99,600.20,600.72,27.87,0000 0000 0000 0000 000000
2015-09-17 11:34:52,0.00,0.09,0.00,21.31,27.32,30.51,14.80,49.33,1018.59,2039.01,3457.97,3214.03,3494.91,600.04,600.73,27.92,0000 0000 0000 0000 000000
2015-09-17 11:39:54,0.03,0.09,0.00,21.63,27.32,30.64,14.74,49.27,1018.58,2039.02,3457.50,3214.00,3494.43,600.13,600.02,27.97,0000 0000 0000 0000 000000
2015-09-17 11:44:55,0.04,0.09,0.00,21.68,27.32,30.48,14.69,49.08,1018.58,2039.03,3456.32,3213.29,3493.80,599.53,599.38,28.02,0000 0000 0000 0000 000000
2015-09-17 11:49:57,0.02,0.10,0.00,21.52,27.32,30.42,14.71,49.02,1018.57,2039.01,3455.25,3212.86,3493.05,599.99,600.11,28.07,0000 0000 0000 0000 000000
2015-09-17 11:54:58,0.23,0.10,0.00,21.45,27.32,30.51,14.76,49.39,1018.58,2039.01,3451.19,3210.24,3490.48,599.99,600.37,28.12,0000 0000 0000 0000 000000
2015-09-17 11:59:59,0.07,0.11,0.00,21.38,27.32,30.63,14.80,49.24,1018.57,2039.03,3448.03,3208.47,3488.60,600.04,600.45,28.17,0000 0000 0000 0000 000000
2015-09-17 12:05:01,0.02,0.11,0.00,21.34,27.32,30.59,14.84,49.33,1018.57,2039.02,3446.98,3207.99,3488.01,600.08,600.62,28.22,0000 0000 0000 0000 000000
2015-09-17 12:10:02,0.04,0.11,0.00,21.31,27.32,30.53,14.75,49.28,1018.57,2039.04,3446.13,3207.52,3487.47,600.00,600.59,28.27,0000 0000 0000 0000 000000
2015-09-17 12:15:03,0.01,0.12,0.00,21.27,27.31,30.49,14.74,49.11,1018.53,2039.05,3445.80,3207.05,3487.04,599.65,600.34,28.32,0000 0000 0000 0000 000000
2015-09-17 12:20:05,0.02,0.12,0.00,21.27,27.30,30.53,14.76,49.34,1018.37,2039.09,3445.00,3206.98,3486.90,600.26,600.78,28.37,0000 0000 0000 0000 000000
2015-09-17 12:25:06,0.06,0.12,0.00,21.23,27.30,30.49,14.79,49.33,1018.17,2039.19,3443.83,3206.21,3486.04,600.40,600.94,28.42,0000 0000 0000 0000 000000
2015-09-17 12:30:07,0.07,0.12,0.00,21.35,27.30,30.54,14.75,49.33,1018.11,2039.20,3442.27,3205.22,3484.92,599.76,600.07,28.47,0000 0000 0000 0000 000000
2015-09-17 12:35:08,0.07,0.13,0.00,21.73,27.30,30.61,14.73,49.11,1018.09,2039.29,3440.65,3204.19,3483.88,600.56,599.95,28.52,0000 0000 0000 0000 000000
2015-09-17 12:40:09,0.04,0.13,0.00,21.68,27.30,30.45,14.77,49.09,1018.09,2039.26,3439.30,3203.35,3482.94,600.48,600.03,28.57,0000 0000 0000 0000 000000
2015-09-17 12:45:11,0.08,0.13,0.00,21.52,27.30,30.48,14.74,49.08,1018.08,2039.19,3437.54,3202.29,3481.83,599.94,599.83,28.62,0000 0000 0000 0000 000000
2015-09-17 12:50:12,0.03,0.14,0.00,21.42,27.30,30.61,14.78,49.28,1018.08,2039.12,3436.29,3201.51,3481.02,599.93,600.01,28.67,0000 0000 0000 0000 000000
2015-09-17 12:55:13,0.03,0.14,0.00,21.36,27.30,30.56,14.78,49.36,1018.08,2039.09,3435.28,3200.99,3480.25,600.03,600.22,28.72,0000 0000 0000 0000 000000